TimeCST,TemperatureF,Dew PointF,Humidity,Sea Level PressureIn,VisibilityMPH,Wind Direction,Wind SpeedMPH,Gust SpeedMPH,PrecipitationIn,Events,Conditions,WindDirDegrees,DateUTC
12:15 AM,30.2,30.2,100,29.85,0.5,Calm,Calm,-,0.02,Snow,Light Snow,0,2012-12-29 06:15:00
12:35 AM,30.2,30.2,100,29.84,0.8,Calm,Calm,-,0.04,Snow,Light Snow,0,2012-12-29 06:35:00
12:55 AM,30.2,30.2,100,29.85,0.8,Calm,Calm,-,0.06,Snow,Light Snow,0,2012-12-29 06:55:00
1:15 AM,30.2,30.2,100,29.85,0.5,Calm,Calm,-,0.02,Snow,Light Snow,0,2012-12-29 07:15:00
1:35 AM,30.2,30.2,100,29.86,0.8,Calm,Calm,-,0.03,Snow,Light Snow,0,2012-12-29 07:35:00
1:55 AM,32.0,30.2,93,29.86,1.0,Calm,Calm,-,0.05,Snow,Light Snow,0,2012-12-29 07:55:00
2:15 AM,32.0,30.2,93,29.87,1.0,Calm,Calm,-,0.01,Snow,Light Snow,0,2012-12-29 08:15:00
2:35 AM,32.0,30.2,93,29.88,1.5,Calm,Calm,-,0.02,Snow,Light Snow,0,2012-12-29 08:35:00
2:55 AM,32.0,30.2,93,29.89,2.0,Calm,Calm,-,0.02,Snow,Light Snow,0,2012-12-29 08:55:00
3:15 AM,32.0,30.2,93,29.89,2.0,NW,3.5,-,0.01,Snow,Light Snow,320,2012-12-29 09:15:00
3:35 AM,32.0,30.2,93,29.89,2.5,Calm,Calm,-,0.01,Snow,Light Snow,0,2012-12-29 09:35:00
3:55 AM,32.0,30.2,93,29.90,4.0,Calm,Calm,-,0.02,,Overcast,0,2012-12-29 09:55:00
4:15 AM,32.0,30.2,93,29.90,4.0,Calm,Calm,-,N/A,,Overcast,0,2012-12-29 10:15:00
4:35 AM,32.0,28.4,87,29.91,4.0,NW,3.5,-,N/A,,Overcast,320,2012-12-29 10:35:00
4:55 AM,32.0,28.4,87,29.91,4.0,Calm,Calm,-,N/A,,Overcast,0,2012-12-29 10:55:00
5:15 AM,32.0,28.4,87,29.92,4.0,Calm,Calm,-,N/A,,Overcast,0,2012-12-29 11:15:00
5:35 AM,30.2,28.4,93,29.93,4.0,Calm,Calm,-,N/A,,Overcast,0,2012-12-29 11:35:00
5:55 AM,30.2,28.4,93,29.94,4.0,Calm,Calm,-,N/A,,Overcast,0,2012-12-29 11:55:00
6:15 AM,30.2,28.4,93,29.95,5.0,Calm,Calm,-,N/A,,Overcast,0,2012-12-29 12:15:00
6:35 AM,30.2,28.4,93,29.96,5.0,Calm,Calm,-,N/A,,Overcast,0,2012-12-29 12:35:00
6:55 AM,30.2,28.4,93,29.97,5.0,Calm,Calm,-,N/A,,Overcast,0,2012-12-29 12:55:00
7:15 AM,30.2,28.4,93,29.98,5.0,WNW,3.5,-,N/A,,Overcast,300,2012-12-29 13:15:00
7:35 AM,30.2,28.4,93,29.99,5.0,Calm,Calm,-,N/A,,Overcast,0,2012-12-29 13:35:00
7:55 AM,30.2,28.4,93,30.00,5.0,Calm,Calm,-,N/A,,Overcast,0,2012-12-29 13:55:00
8:15 AM,30.2,28.4,93,30.01,5.0,Calm,Calm,-,N/A,,Overcast,0,2012-12-29 14:15:00
8:35 AM,30.2,28.4,93,30.02,5.0,NW,3.5,-,N/A,,Overcast,310,2012-12-29 14:35:00
8:55 AM,30.2,28.4,93,30.04,7.0,NW,4.6,-,N/A,,Overcast,310,2012-12-29 14:55:00
9:15 AM,30.2,26.6,86,30.04,7.0,NW,4.6,-,N/A,,Overcast,310,2012-12-29 15:15:00
9:35 AM,30.2,26.6,86,30.06,10.0,WNW,3.5,-,N/A,,Overcast,300,2012-12-29 15:35:00
9:55 AM,30.2,26.6,86,30.07,7.0,WNW,3.5,-,N/A,,Overcast,300,2012-12-29 15:55:00
10:15 AM,30.2,26.6,86,30.08,10.0,Calm,Calm,-,N/A,,Overcast,0,2012-12-29 16:15:00
10:35 AM,30.2,26.6,86,30.08,10.0,Calm,Calm,-,N/A,,Overcast,0,2012-12-29 16:35:00
10:55 AM,30.2,26.6,86,30.08,10.0,Calm,Calm,-,N/A,Snow,Light Snow,0,2012-12-29 16:55:00
11:15 AM,30.2,26.6,86,30.08,10.0,WNW,4.6,-,N/A,,Overcast,300,2012-12-29 17:15:00
11:35 AM,30.2,26.6,86,30.08,7.0,Calm,Calm,-,N/A,Snow,Light Snow,0,2012-12-29 17:35:00
11:55 AM,30.2,26.6,86,30.08,7.0,NW,3.5,-,N/A,Snow,Light Snow,310,2012-12-29 17:55:00
12:15 PM,30.2,26.6,86,30.08,5.0,WNW,3.5,-,N/A,Snow,Light Snow,300,2012-12-29 18:15:00
12:35 PM,30.2,26.6,86,30.09,5.0,Calm,Calm,-,N/A,Rain,Freezing Rain,0,2012-12-29 18:35:00
12:55 PM,30.2,26.6,86,30.09,5.0,Calm,Calm,-,N/A,Rain,Freezing Rain,0,2012-12-29 18:55:00
1:15 PM,30.2,24.8,80,30.10,7.0,NW,3.5,-,N/A,,Overcast,310,2012-12-29 19:15:00
1:35 PM,30.2,24.8,80,30.11,10.0,WNW,6.9,-,N/A,,Overcast,290,2012-12-29 19:35:00
1:55 PM,30.2,23.0,75,30.12,10.0,WNW,8.1,-,N/A,,Overcast,290,2012-12-29 19:55:00
2:15 PM,28.4,23.0,80,30.13,7.0,WNW,10.4,-,N/A,Snow,Light Snow,300,2012-12-29 20:15:00
2:35 PM,28.4,23.0,80,30.14,7.0,WNW,12.7,20.7,N/A,Snow,Light Snow,290,2012-12-29 20:35:00
2:55 PM,28.4,23.0,80,30.15,7.0,WNW,8.1,-,N/A,,Overcast,300,2012-12-29 20:55:00
3:15 PM,28.4,21.2,74,30.17,5.0,WNW,9.2,18.4,N/A,Snow,Light Snow,300,2012-12-29 21:15:00
3:35 PM,28.4,21.2,74,30.17,10.0,NW,5.8,-,N/A,,Overcast,310,2012-12-29 21:35:00
3:55 PM,26.6,21.2,80,30.18,10.0,NW,5.8,-,N/A,,Overcast,310,2012-12-29 21:55:00
4:15 PM,26.6,21.2,80,30.19,7.0,WNW,6.9,-,N/A,,Overcast,300,2012-12-29 22:15:00
4:35 PM,26.6,21.2,80,30.20,10.0,WNW,6.9,-,N/A,,Overcast,290,2012-12-29 22:35:00
4:55 PM,26.6,21.2,80,30.21,10.0,WNW,4.6,-,N/A,,Overcast,290,2012-12-29 22:55:00
5:15 PM,26.6,21.2,80,30.22,10.0,West,3.5,-,N/A,,Overcast,280,2012-12-29 23:15:00
5:35 PM,26.6,21.2,80,30.23,10.0,WNW,3.5,-,N/A,,Overcast,290,2012-12-29 23:35:00
5:55 PM,26.6,21.2,80,30.24,10.0,West,5.8,-,N/A,,Overcast,280,2012-12-29 23:55:00
6:15 PM,26.6,21.2,80,30.25,10.0,West,5.8,-,N/A,,Overcast,280,2012-12-30 00:15:00
6:35 PM,26.6,19.4,74,30.26,10.0,WNW,4.6,-,N/A,,Mostly Cloudy,290,2012-12-30 00:35:00
6:55 PM,26.6,19.4,74,30.27,10.0,NW,3.5,-,N/A,,Scattered Clouds,310,2012-12-30 00:55:00
7:15 PM,24.8,17.6,74,30.28,10.0,WNW,3.5,-,N/A,,Clear,300,2012-12-30 01:15:00
7:35 PM,23.0,17.6,80,30.29,10.0,Calm,Calm,-,N/A,,Clear,0,2012-12-30 01:35:00
7:55 PM,21.2,17.6,86,30.30,10.0,Calm,Calm,-,N/A,,Clear,0,2012-12-30 01:55:00
8:15 PM,19.4,15.8,86,30.30,10.0,Calm,Calm,-,N/A,,Clear,0,2012-12-30 02:15:00
8:35 PM,19.4,15.8,86,30.32,10.0,Calm,Calm,-,N/A,,Clear,0,2012-12-30 02:35:00
8:55 PM,17.6,14.0,86,30.32,10.0,Calm,Calm,-,N/A,,Clear,0,2012-12-30 02:55:00
9:15 PM,17.6,14.0,86,30.33,7.0,Calm,Calm,-,N/A,,Clear,0,2012-12-30 03:15:00
9:35 PM,15.8,12.2,86,30.34,7.0,Calm,Calm,-,N/A,,Clear,0,2012-12-30 03:35:00
9:55 PM,17.6,14.0,86,30.34,7.0,Calm,Calm,-,N/A,,Clear,0,2012-12-30 03:55:00
10:15 PM,14.0,10.4,86,30.35,4.0,Calm,Calm,-,N/A,,Clear,0,2012-12-30 04:15:00
10:35 PM,15.8,12.2,86,30.36,5.0,Calm,Calm,-,N/A,,Clear,0,2012-12-30 04:35:00
10:55 PM,14.0,12.2,93,30.36,4.0,Calm,Calm,-,N/A,,Clear,0,2012-12-30 04:55:00
11:15 PM,14.0,12.2,93,30.35,3.0,Calm,Calm,-,N/A,,Clear,0,2012-12-30 05:15:00
11:35 PM,8.6,6.8,92,30.35,0.2,Calm,Calm,-,N/A,Fog,Light Freezing Fog,0,2012-12-30 05:35:00
11:55 PM,12.2,10.4,92,30.34,0.2,Calm,Calm,-,N/A,Fog,Light Freezing Fog,0,2012-12-30 05:55:00